"Pseudo-MPEC" for P1134Vq

Created 2020 Aug 11 20:07:16 UT using Find_Orb

Click here for an explanation of pseudo-MPECs

 
 Astrometry: 
     P1134Vq  C2020 07 22=DdqirxHwy7]:a6R-vowneOAstrometry;G_Q7@W5^(%V'-rEt3KF51
     P1134Vq  C2020 07 220eX,Z/TF_redacted;oGxrxil0click%P8^`?emy^8sKchere)7vF51
     P1134Vq  C2020 07 22iK+wKforDlMCK20[k:NOGonFS`sX$VoEu_B^hexplanationM[-yF51

Station data:
(F51) Pan-STARRS 1, Haleakala  (N20.707235 W156.255910)  US/Hawaii.
   Observers N. Primak, A. Schultz, S. Watters, J. Thiel, T. Goggia. Measurer
   PS1 Science Consortium. 1.8-m Ritchey-Chrétien + CCD.

Orbital elements:  P1134Vq
   Perihelion 2020 Mar 11.127828 +/- 262 TT =  3:04:04 (JD 2458919.627828)
Epoch 2020 Jul 22.0 TT = JDT 2459052.5   Earth MOID: 0.2476   Ma: 0.0165
M  79.85700834 +/- 90               (J2000 ecliptic)          AutoNEOCP
n   0.60100626 +/- 0.302            Peri.  240.00059 +/- 60
a   1.39064639 +/- 0.466            Node   332.16193 +/- 28
e   0.1021535 +/- 0.241             Incl.    2.84055 +/- 48
P   1.64/598.98d           H 23.5   G  0.15   U 11.9  SR
q 1.24858697 +/- 0.918    Q 1.53270582 +/- 27.2
From 3 observations 2020 July 22 (31.3 min); mean residual 0".06
Residuals in arcseconds: 
200722 F51  .01+  .06-    200722 F51  .02-  .12+    200722 F51  .01+  .06-    

Ephemerides (geocentric):
Date (UTC) HH   RA              Dec         delta   r     elong  mag " sig PA
---- -- -- --  -------------   -----------  ------ ------ -----  --- ---- ---
2020 08 11 20  20 44 53.857   -20 54 52.13  .40336 1.4108 168.4 22.8  36d  15
2020 08 11 21  20 44 50.218   -20 54 48.29  .40348 1.4109 168.4 22.8  36d  15
2020 08 11 22  20 44 46.583   -20 54 44.44  .40360 1.4110 168.3 22.8  36d  15
2020 08 11 23  20 44 42.952   -20 54 40.56  .40372 1.4110 168.3 22.8  36d  15
2020 08 12 00  20 44 39.325   -20 54 36.67  .40384 1.4111 168.2 22.8  36d  15
2020 08 12 01  20 44 35.703   -20 54 32.76  .40397 1.4111 168.2 22.9  36d  15
2020 08 12 02  20 44 32.084   -20 54 28.83  .40409 1.4112 168.1 22.9  36d  15
2020 08 12 03  20 44 28.470   -20 54 24.89  .40421 1.4113 168.1 22.9  36d  15
2020 08 12 04  20 44 24.861   -20 54 20.92  .40433 1.4113 168.0 22.9  36d  15
2020 08 12 05  20 44 21.255   -20 54 16.94  .40445 1.4114 167.9 22.9  36d  15
2020 08 12 06  20 44 17.654   -20 54 12.94  .40458 1.4114 167.9 22.9  36d  15
2020 08 12 07  20 44 14.057   -20 54 08.92  .40470 1.4115 167.8 22.9  36d  15
2020 08 12 08  20 44 10.464   -20 54 04.89  .40482 1.4116 167.8 22.9  36d  15
2020 08 12 09  20 44 06.875   -20 54 00.84  .40495 1.4116 167.7 22.9  36d  15
2020 08 12 10  20 44 03.291   -20 53 56.77  .40507 1.4117 167.7 22.9  36d  15
2020 08 12 11  20 43 59.712   -20 53 52.68  .40519 1.4117 167.6 22.9  36d  15
2020 08 12 12  20 43 56.136   -20 53 48.57  .40532 1.4118 167.6 22.9  36d  15
2020 08 12 13  20 43 52.565   -20 53 44.45  .40544 1.4119 167.5 22.9  36d  15
2020 08 12 14  20 43 48.998   -20 53 40.31  .40557 1.4119 167.5 22.9  36d  15
2020 08 12 15  20 43 45.436   -20 53 36.15  .40569 1.4120 167.4 22.9  37d  15
2020 08 12 16  20 43 41.878   -20 53 31.97  .40582 1.4120 167.4 22.9  37d  15
2020 08 12 17  20 43 38.324   -20 53 27.78  .40594 1.4121 167.3 22.9  37d  15
2020 08 12 18  20 43 34.775   -20 53 23.57  .40607 1.4122 167.3 22.9  37d  15
2020 08 12 19  20 43 31.230   -20 53 19.34  .40619 1.4122 167.2 22.9  37d  15
2020 08 12 20  20 43 27.689   -20 53 15.09  .40632 1.4123 167.2 22.9  37d  15
2020 08 12 21  20 43 24.153   -20 53 10.83  .40645 1.4123 167.1 22.9  37d  15
2020 08 12 22  20 43 20.622   -20 53 06.54  .40657 1.4124 167.1 22.9  37d  15
2020 08 12 23  20 43 17.095   -20 53 02.24  .40670 1.4125 167.0 22.9  37d  15
2020 08 13 00  20 43 13.572   -20 52 57.92  .40683 1.4125 167.0 22.9  37d  15
2020 08 13 01  20 43 10.054   -20 52 53.59  .40696 1.4126 166.9 22.9  37d  15
2020 08 13 02  20 43 06.540   -20 52 49.23  .40708 1.4127 166.9 22.9  37d  15
2020 08 13 03  20 43 03.031   -20 52 44.86  .40721 1.4127 166.8 22.9  37d  15
2020 08 13 04  20 42 59.527   -20 52 40.48  .40734 1.4128 166.8 22.9  37d  15
2020 08 13 05  20 42 56.026   -20 52 36.07  .40747 1.4128 166.7 22.9  37d  15
2020 08 13 06  20 42 52.531   -20 52 31.65  .40760 1.4129 166.7 22.9  37d  15
2020 08 13 07  20 42 49.040   -20 52 27.20  .40773 1.4130 166.6 22.9  37d  15
2020 08 13 08  20 42 45.553   -20 52 22.75  .40786 1.4130 166.6 22.9  37d  15
2020 08 13 09  20 42 42.071   -20 52 18.27  .40799 1.4131 166.5 22.9  37d  15
2020 08 13 10  20 42 38.594   -20 52 13.77  .40812 1.4131 166.5 22.9  37d  15
2020 08 13 11  20 42 35.121   -20 52 09.26  .40825 1.4132 166.4 22.9  37d  15
2020 08 13 12  20 42 31.653   -20 52 04.73  .40838 1.4133 166.4 22.9  37d  15
2020 08 13 13  20 42 28.190   -20 52 00.19  .40851 1.4133 166.3 22.9  37d  15
2020 08 13 14  20 42 24.731   -20 51 55.62  .40864 1.4134 166.3 22.9  37d  15
2020 08 13 15  20 42 21.277   -20 51 51.04  .40877 1.4134 166.2 22.9  37d  15
2020 08 13 16  20 42 17.827   -20 51 46.44  .40890 1.4135 166.2 22.9  37d  15
2020 08 13 17  20 42 14.382   -20 51 41.82  .40903 1.4136 166.1 22.9  37d  15
2020 08 13 18  20 42 10.942   -20 51 37.19  .40916 1.4136 166.1 22.9  37d  15
2020 08 13 19  20 42 07.506   -20 51 32.54  .40930 1.4137 166.0 22.9  37d  15